Location: Curupao
(10.4996°N, 66.6442°W)
Time: 21:12:53
(UTC+00:00)

Cosmos 1072 Rocket - Pass Details

Date: 23 May 2024
Orbit: 947 x 1009 km, 82.9° (Epoch: 25 June)

Event Time Altitude Azimuth Distance (km) Brightness Sun altitude
Rises 00:30:06 0° 2° (N) 3,610 7.8 -24.8°
Reaches altitude 10° 00:32:37 10° 5° (N) 2,662 7.0 -25.3°
Enters shadow 00:38:34 64° 83° (E) 1,042 4.3 -26.6°
